Flag for Australia Weather past 2 weeks in Darwin, Northern Territory, Australia

Now
88 °F

Partly sunny.


Feels Like: 98 °F
Forecast: 77 / 91 °F
Wind: 7 mph from North

Location: Darwin Airport

Current Time: Apr 2, 2015 at 12:58:01 PM

Latest Report: Apr 2, 2015 at 12:30 PM


Visibility: N/A

Pressure: 29.80 "Hg

Humidity: 66%

Dew point: 75 °F

Location of DarwinLocation

Historic Weather in Darwin — Graph

°F

Darwin temperature yesterday

Maximum temperature yesterday: 91 °F (at 2:30 PM)
Minimum temperature yesterday: 75 °F (at 7:00 PM)
Average temperature yesterday: 83 °F

Past Weeks' High & Low Weather Summary

 TemperatureHumidityPressure
High93 °F (Mar 31, 2:00 PM)100% (Mar 20, 4:30 AM)30.01 "Hg (Mar 20, 4:30 AM)
Low73 °F (Mar 27, 8:00 AM)36% (Mar 23, 1:30 PM)29.68 "Hg (Mar 23, 3:30 PM)
Average82 °F78%29.84 "Hg
* Reported Mar 18 11:30 AM — Apr 2 11:30 AM, Darwin, Weather by CustomWeather, © 2015

Note: Actual official high and low records may vary slightly from our data, if they occured in-between our weather recording intervals... More about our weather records

Advertising

Darwin weather history for previous 24 hours

 ConditionsComfort  
Time TempWeatherWind HumidityBarometerVisibility
11:30 AM
Thu, Apr 2
90 °FScattered clouds.7 mph63%29.83 "HgN/A
11:00 AM88 °FScattered clouds.6 mph66%29.83 "HgN/A
10:30 AM88 °FScattered clouds.1 mph66%29.83 "HgN/A
10:00 AM88 °FPassing clouds.2 mph66%29.83 "HgN/A
9:30 AM86 °FPassing clouds.5 mph70%29.83 "HgN/A
9:00 AM86 °FPassing clouds.1 mph75%29.83 "HgN/A
8:30 AM84 °FPassing clouds.1 mph84%29.83 "HgN/A
8:00 AM82 °FPassing clouds.3 mph89%29.80 "HgN/A
7:30 AM79 °FPassing clouds.5 mph94%29.80 "HgN/A
7:00 AM77 °FPassing clouds.5 mph100%29.80 "HgN/A
6:30 AM77 °FPassing clouds.5 mph94%29.77 "HgN/A
6:00 AM77 °FClear.No wind100%29.77 "Hg10 mi
5:30 AM77 °FClear.3 mph100%29.77 "Hg10 mi
5:00 AM77 °FClear.No wind100%29.77 "Hg10 mi
4:30 AM77 °FClear.2 mph94%29.77 "Hg10 mi
3:30 AM77 °FClear.No wind94%29.77 "Hg10 mi
3:00 AM77 °FClear.1 mph94%29.77 "Hg10 mi
2:30 AM77 °FClear.3 mph100%29.80 "Hg10 mi
2:00 AM79 °FClear.5 mph89%29.80 "Hg10 mi
1:30 AM79 °FClear.5 mph89%29.83 "Hg10 mi
1:00 AM79 °FClear.3 mph94%29.83 "Hg10 mi
12:30 AM79 °FClear.3 mph89%29.83 "Hg10 mi
12:00 AM79 °FClear.5 mph94%29.83 "Hg10 mi
11:30 PM
Wed, Apr 1
79 °FClear.5 mph94%29.83 "Hg10 mi
11:00 PM79 °FPassing clouds.3 mph89%29.83 "HgN/A
10:30 PM79 °FClear.6 mph89%29.83 "Hg10 mi
10:00 PM79 °FClear.6 mph84%29.83 "Hg10 mi
9:30 PM79 °FClear.5 mph89%29.83 "Hg10 mi
9:00 PM79 °FPartly cloudy.7 mph84%29.83 "HgN/A
8:30 PM77 °FPartly cloudy.7 mph89%29.83 "HgN/A
8:00 PM77 °FPartly cloudy.8 mph89%29.80 "HgN/A
7:30 PM77 °FLight rain. Partly cloudy.16 mph89%29.83 "HgN/A
7:00 PM75 °FBroken clouds.18 mph94%29.80 "HgN/A
6:30 PM86 °FRain showers. Scattered clouds.9 mph70%29.77 "HgN/A
6:00 PM88 °FPassing clouds.10 mph66%29.77 "HgN/A
5:30 PM88 °FPassing clouds.12 mph66%29.77 "HgN/A
5:00 PM90 °FPassing clouds.12 mph63%29.77 "HgN/A
4:30 PM90 °FPassing clouds.12 mph59%29.77 "HgN/A
4:00 PM90 °FPassing clouds.12 mph63%29.77 "HgN/A
3:30 PM91 °FPassing clouds.13 mph59%29.77 "HgN/A
3:00 PM91 °FPassing clouds.13 mph59%29.77 "HgN/A
2:30 PM91 °FPassing clouds.10 mph59%29.77 "HgN/A
2:00 PM90 °FScattered clouds.10 mph63%29.80 "HgN/A
1:30 PM90 °FScattered clouds.10 mph63%29.80 "HgN/A
12:30 PM88 °FScattered clouds.9 mph66%29.83 "HgN/A
12:00 PM90 °FScattered clouds.9 mph67%29.86 "HgN/A
Weather by CustomWeather, © 2015

See weather overviewHow to use our weather pages